Time,TemperatureF,DewpointF,PressureIn,WindDirection,WindDirectionDegrees,WindSpeedMPH,WindSpeedGustMPH,Humidity,HourlyPrecipIn,Conditions,Clouds,dailyrainin,SoftwareType,DateUTC
2013-05-09 00:00:00,64.8,53.1,30.02,South,180,0.0,0.0,66,0.00,,,0.00,WUHU21623XXSP,2013-05-09 05:00:00,
2013-05-09 00:05:00,64.6,53.4,30.03,South,180,0.0,0.0,67,0.00,,,0.00,WUHU21623XXSP,2013-05-09 05:05:00,
2013-05-09 00:10:00,64.8,54.0,30.02,South,180,0.0,0.0,68,0.00,,,0.00,WUHU21623XXSP,2013-05-09 05:10:00,
2013-05-09 00:15:00,65.1,54.3,30.02,South,180,0.0,0.0,68,0.00,,,0.00,WUHU21623XXSP,2013-05-09 05:15:00,
2013-05-09 00:20:00,65.3,54.5,30.02,South,180,0.0,0.0,68,0.00,,,0.00,WUHU21623XXSP,2013-05-09 05:20:00,
2013-05-09 00:25:00,65.5,54.6,30.02,South,180,0.0,0.0,68,0.00,,,0.00,WUHU21623XXSP,2013-05-09 05:25:00,
2013-05-09 00:30:00,65.5,54.6,30.02,South,180,0.0,0.0,68,0.00,,,0.00,WUHU21623XXSP,2013-05-09 05:30:00,
2013-05-09 00:35:00,65.1,53.9,30.02,South,180,0.0,0.0,67,0.00,,,0.00,WUHU21623XXSP,2013-05-09 05:35:00,
2013-05-09 00:40:00,64.8,54.4,30.02,South,180,0.0,0.0,69,0.00,,,0.00,WUHU21623XXSP,2013-05-09 05:40:00,
2013-05-09 00:45:00,64.6,54.2,30.02,SSW,202,0.0,0.0,69,0.00,,,0.00,WUHU21623XXSP,2013-05-09 05:45:00,
2013-05-09 00:50:00,64.6,54.7,30.01,SSW,202,0.0,0.0,70,0.00,,,0.00,WUHU21623XXSP,2013-05-09 05:50:00,
2013-05-09 00:55:00,64.9,55.0,30.01,South,180,0.0,0.0,70,0.00,,,0.00,WUHU21623XXSP,2013-05-09 05:55:00,
2013-05-09 01:00:00,65.3,55.3,30.00,South,180,0.0,0.0,70,0.00,,,0.00,WUHU21623XXSP,2013-05-09 06:00:00,
2013-05-09 01:05:00,66.0,55.5,30.00,South,180,0.0,0.0,69,0.00,,,0.00,WUHU21623XXSP,2013-05-09 06:05:00,
2013-05-09 01:10:00,66.4,55.5,30.00,South,180,0.0,0.0,68,0.00,,,0.00,WUHU21623XXSP,2013-05-09 06:10:00,
2013-05-09 01:15:00,66.7,55.8,30.00,South,180,0.0,0.0,68,0.00,,,0.00,WUHU21623XXSP,2013-05-09 06:15:00,
2013-05-09 01:20:00,66.9,55.6,30.00,SSW,202,0.0,0.0,67,0.00,,,0.00,WUHU21623XXSP,2013-05-09 06:20:00,
2013-05-09 01:25:00,67.3,55.9,30.00,South,180,0.0,0.0,67,0.00,,,0.00,WUHU21623XXSP,2013-05-09 06:25:00,
2013-05-09 01:30:00,67.6,56.3,30.00,South,180,0.0,0.0,67,0.00,,,0.00,WUHU21623XXSP,2013-05-09 06:30:00,
2013-05-09 01:35:00,67.8,56.0,30.00,SSW,202,0.0,0.0,66,0.00,,,0.00,WUHU21623XXSP,2013-05-09 06:35:00,
2013-05-09 01:40:00,67.8,56.0,30.00,South,180,0.0,0.0,66,0.00,,,0.00,WUHU21623XXSP,2013-05-09 06:40:00,
2013-05-09 01:45:00,67.8,56.0,30.00,SSE,157,0.0,0.0,66,0.00,,,0.00,WUHU21623XXSP,2013-05-09 06:45:00,
2013-05-09 01:50:00,68.0,55.6,30.00,South,180,0.0,0.0,65,0.00,,,0.00,WUHU21623XXSP,2013-05-09 06:50:00,
2013-05-09 01:55:00,68.2,55.9,30.00,South,180,0.0,0.0,65,0.00,,,0.00,WUHU21623XXSP,2013-05-09 06:55:00,
2013-05-09 02:00:00,68.2,55.9,29.99,South,180,0.0,0.0,65,0.00,,,0.00,WUHU21623XXSP,2013-05-09 07:00:00,
2013-05-09 02:05:00,68.2,55.9,30.00,South,180,0.0,0.0,65,0.00,,,0.00,WUHU21623XXSP,2013-05-09 07:05:00,
2013-05-09 02:10:00,68.2,55.9,30.00,WSW,247,0.0,0.0,65,0.00,,,0.00,WUHU21623XXSP,2013-05-09 07:10:00,
2013-05-09 02:15:00,68.2,55.9,30.01,WSW,247,0.0,0.0,66,0.00,,,0.00,WUHU21623XXSP,2013-05-09 07:15:00,
2013-05-09 02:20:00,67.8,56.4,30.02,WSW,247,0.0,0.0,67,0.00,,,0.00,WUHU21623XXSP,2013-05-09 07:20:00,
2013-05-09 02:25:00,67.5,56.1,30.02,SSW,202,0.0,0.0,67,0.00,,,0.00,WUHU21623XXSP,2013-05-09 07:25:00,
2013-05-09 02:30:00,66.7,55.0,30.00,WSW,247,1.3,2.7,66,0.00,,,0.00,WUHU21623XXSP,2013-05-09 07:30:00,
2013-05-09 02:35:00,66.4,54.8,30.00,SW,225,0.0,2.7,67,0.00,,,0.00,WUHU21623XXSP,2013-05-09 07:35:00,
2013-05-09 02:40:00,66.0,54.3,29.99,SSW,202,0.0,0.0,66,0.00,,,0.00,WUHU21623XXSP,2013-05-09 07:40:00,
2013-05-09 02:45:00,65.7,54.5,29.98,SW,225,0.0,0.0,67,0.00,,,0.00,WUHU21623XXSP,2013-05-09 07:45:00,
2013-05-09 02:50:00,65.5,54.2,29.97,WSW,247,0.0,0.0,67,0.00,,,0.00,WUHU21623XXSP,2013-05-09 07:50:00,
2013-05-09 02:55:00,65.1,53.9,29.96,WSW,247,0.9,0.9,67,0.00,,,0.00,WUHU21623XXSP,2013-05-09 07:55:00,
2013-05-09 03:00:00,64.6,54.0,29.96,SSW,202,0.0,0.9,68,0.00,,,0.00,WUHU21623XXSP,2013-05-09 08:00:00,
2013-05-09 03:05:00,64.4,53.6,29.96,SSW,202,0.0,0.0,68,0.00,,,0.00,WUHU21623XXSP,2013-05-09 08:05:00,
2013-05-09 03:10:00,64.2,53.5,29.96,SSW,202,0.0,0.0,68,0.00,,,0.00,WUHU21623XXSP,2013-05-09 08:10:00,
2013-05-09 03:15:00,63.7,53.5,29.96,SSW,202,0.0,0.0,69,0.00,,,0.00,WUHU21623XXSP,2013-05-09 08:15:00,
2013-05-09 03:20:00,63.5,53.6,29.97,SSW,202,0.0,0.0,70,0.00,,,0.00,WUHU21623XXSP,2013-05-09 08:20:00,
2013-05-09 03:25:00,63.3,54.1,29.98,SSW,202,0.0,0.0,72,0.00,,,0.00,WUHU21623XXSP,2013-05-09 08:25:00,
2013-05-09 03:30:00,63.1,54.0,29.99,SSW,202,0.0,0.0,72,0.00,,,0.00,WUHU21623XXSP,2013-05-09 08:30:00,
2013-05-09 03:35:00,63.0,53.8,29.99,South,180,0.0,0.0,72,0.00,,,0.00,WUHU21623XXSP,2013-05-09 08:35:00,
2013-05-09 03:40:00,62.8,53.6,30.00,SSW,202,0.0,0.0,72,0.00,,,0.00,WUHU21623XXSP,2013-05-09 08:40:00,
2013-05-09 03:45:00,62.6,53.4,29.99,South,180,0.0,0.0,72,0.00,,,0.00,WUHU21623XXSP,2013-05-09 08:45:00,
2013-05-09 03:50:00,62.2,53.5,29.99,South,180,0.0,0.0,73,0.00,,,0.00,WUHU21623XXSP,2013-05-09 08:50:00,
2013-05-09 03:55:00,62.1,53.7,29.97,South,180,0.0,0.0,74,0.00,,,0.00,WUHU21623XXSP,2013-05-09 08:55:00,
2013-05-09 04:00:00,61.7,53.3,29.97,South,180,0.0,0.0,74,0.00,,,0.00,WUHU21623XXSP,2013-05-09 09:00:00,
2013-05-09 04:05:00,61.5,53.5,29.97,South,180,0.0,0.0,75,0.00,,,0.00,WUHU21623XXSP,2013-05-09 09:05:00,
2013-05-09 04:10:00,61.3,53.7,29.97,South,180,0.0,0.0,76,0.00,,,0.00,WUHU21623XXSP,2013-05-09 09:10:00,
2013-05-09 04:15:00,61.2,53.9,29.98,South,180,0.0,0.0,77,0.00,,,0.00,WUHU21623XXSP,2013-05-09 09:15:00,
2013-05-09 04:20:00,61.0,54.1,29.97,South,180,0.0,0.0,78,0.00,,,0.00,WUHU21623XXSP,2013-05-09 09:20:00,
2013-05-09 04:25:00,61.0,54.1,29.98,WSW,247,0.0,0.0,79,0.00,,,0.00,WUHU21623XXSP,2013-05-09 09:25:00,
2013-05-09 04:30:00,60.6,54.5,29.99,NNW,337,0.0,0.0,80,0.00,,,0.00,WUHU21623XXSP,2013-05-09 09:30:00,
2013-05-09 04:35:00,60.6,54.5,29.99,NW,315,0.0,0.0,80,0.00,,,0.00,WUHU21623XXSP,2013-05-09 09:35:00,
2013-05-09 04:40:00,60.6,54.5,29.97,NW,315,0.0,0.0,80,0.00,,,0.00,WUHU21623XXSP,2013-05-09 09:40:00,
2013-05-09 04:45:00,60.6,54.1,29.97,NW,315,0.0,0.0,79,0.00,,,0.00,WUHU21623XXSP,2013-05-09 09:45:00,
2013-05-09 04:50:00,60.4,54.1,29.97,NW,315,0.0,0.0,79,0.00,,,0.00,WUHU21623XXSP,2013-05-09 09:50:00,
2013-05-09 04:55:00,60.4,54.0,29.96,NW,315,0.0,0.0,79,0.00,,,0.00,WUHU21623XXSP,2013-05-09 09:55:00,
2013-05-09 05:00:00,60.4,54.0,29.95,NW,315,0.0,0.0,79,0.00,,,0.00,WUHU21623XXSP,2013-05-09 10:00:00,
2013-05-09 05:05:00,60.3,53.8,29.94,NW,315,0.0,0.0,79,0.00,,,0.00,WUHU21623XXSP,2013-05-09 10:05:00,
2013-05-09 05:10:00,60.1,53.6,29.95,NW,315,0.0,0.0,80,0.00,,,0.00,WUHU21623XXSP,2013-05-09 10:10:00,
2013-05-09 05:15:00,60.1,54.0,29.96,NW,315,0.0,0.0,80,0.00,,,0.00,WUHU21623XXSP,2013-05-09 10:15:00,
2013-05-09 05:20:00,60.1,54.0,29.95,NW,315,0.0,0.0,80,0.00,,,0.00,WUHU21623XXSP,2013-05-09 10:20:00,
2013-05-09 05:26:00,60.1,54.0,29.95,NW,315,0.0,0.0,81,0.00,,,0.00,WUHU21623XXSP,2013-05-09 10:26:00,
2013-05-09 05:31:00,59.9,54.1,29.95,NW,315,0.0,0.0,81,0.00,,,0.00,WUHU21623XXSP,2013-05-09 10:31:00,
2013-05-09 05:36:00,59.9,54.1,29.94,NW,315,0.0,0.0,81,0.00,,,0.00,WUHU21623XXSP,2013-05-09 10:36:00,
2013-05-09 05:41:00,59.9,54.4,29.93,WNW,292,0.0,0.0,82,0.00,,,0.00,WUHU21623XXSP,2013-05-09 10:41:00,
2013-05-09 05:46:00,60.1,54.6,29.95,WNW,292,0.0,0.0,82,0.00,,,0.00,WUHU21623XXSP,2013-05-09 10:46:00,
2013-05-09 05:51:00,60.4,55.0,29.95,WNW,292,0.0,0.0,82,0.00,,,0.00,WUHU21623XXSP,2013-05-09 10:51:00,
2013-05-09 05:56:00,60.6,55.5,29.96,WNW,292,0.0,0.0,83,0.00,,,0.00,WUHU21623XXSP,2013-05-09 10:56:00,
2013-05-09 06:01:00,61.2,55.8,29.97,WNW,292,0.0,0.0,83,0.00,,,0.00,WUHU21623XXSP,2013-05-09 11:01:00,
2013-05-09 06:06:00,61.3,55.8,29.97,WNW,292,0.0,0.0,82,0.00,,,0.00,WUHU21623XXSP,2013-05-09 11:06:00,
2013-05-09 06:11:00,61.3,55.8,29.97,WNW,292,0.0,0.0,82,0.00,,,0.00,WUHU21623XXSP,2013-05-09 11:11:00,
2013-05-09 06:16:00,61.5,56.0,29.98,West,270,0.0,0.0,82,0.00,,,0.00,WUHU21623XXSP,2013-05-09 11:16:00,
2013-05-09 06:21:00,61.5,56.3,30.02,WSW,247,0.0,0.0,83,0.00,,,0.00,WUHU21623XXSP,2013-05-09 11:21:00,
2013-05-09 06:26:00,61.2,56.3,30.02,SSW,202,0.0,3.8,83,0.00,,,0.00,WUHU21623XXSP,2013-05-09 11:26:00,
2013-05-09 06:31:00,60.1,54.9,30.04,SSW,202,0.0,3.8,83,0.00,,,0.00,WUHU21623XXSP,2013-05-09 11:31:00,
2013-05-09 06:36:00,59.5,54.7,30.04,SSW,202,0.0,0.0,84,0.00,,,0.00,WUHU21623XXSP,2013-05-09 11:36:00,
2013-05-09 06:41:00,58.8,54.0,30.04,SSW,202,6.5,6.5,84,0.00,,,0.00,WUHU21623XXSP,2013-05-09 11:41:00,
2013-05-09 06:46:00,58.5,54.1,30.05,SSW,202,0.0,6.5,85,0.00,,,0.00,WUHU21623XXSP,2013-05-09 11:46:00,
2013-05-09 06:51:00,58.3,53.8,30.05,SW,225,0.0,0.0,85,0.00,,,0.00,WUHU21623XXSP,2013-05-09 11:51:00,
2013-05-09 06:56:00,57.9,53.7,30.05,SW,225,0.0,0.0,86,0.00,,,0.00,WUHU21623XXSP,2013-05-09 11:56:00,
2013-05-09 07:01:00,57.9,53.7,30.06,SW,225,0.0,0.0,86,0.00,,,0.00,WUHU21623XXSP,2013-05-09 12:01:00,
2013-05-09 07:06:00,57.7,53.6,30.06,SW,225,0.0,0.0,86,0.00,,,0.00,WUHU21623XXSP,2013-05-09 12:06:00,
2013-05-09 07:11:00,57.7,53.6,30.06,SW,225,0.0,0.0,86,0.00,,,0.00,WUHU21623XXSP,2013-05-09 12:11:00,
2013-05-09 07:16:00,57.7,53.9,30.06,SW,225,0.0,0.0,87,0.00,,,0.00,WUHU21623XXSP,2013-05-09 12:16:00,
2013-05-09 07:21:00,57.7,53.9,30.06,SSW,202,0.0,0.0,87,0.00,,,0.00,WUHU21623XXSP,2013-05-09 12:21:00,
2013-05-09 07:26:00,57.7,53.9,30.05,SSW,202,0.0,0.0,87,0.00,,,0.00,WUHU21623XXSP,2013-05-09 12:26:00,
2013-05-09 07:31:00,57.6,53.7,30.05,SSW,202,0.0,0.0,87,0.00,,,0.00,WUHU21623XXSP,2013-05-09 12:31:00,
2013-05-09 07:36:00,57.6,53.7,30.05,SSW,202,0.0,0.0,87,0.00,,,0.00,WUHU21623XXSP,2013-05-09 12:36:00,
2013-05-09 07:41:00,57.4,53.5,30.05,South,180,0.0,0.0,87,0.00,,,0.00,WUHU21623XXSP,2013-05-09 12:41:00,
2013-05-09 07:46:00,57.4,53.5,30.05,SSE,157,0.0,0.0,87,0.00,,,0.00,WUHU21623XXSP,2013-05-09 12:46:00,
2013-05-09 07:51:00,57.4,53.5,30.05,SSW,202,0.0,0.0,87,0.00,,,0.00,WUHU21623XXSP,2013-05-09 12:51:00,
2013-05-09 07:56:00,57.4,53.5,30.05,SSE,157,0.0,0.0,88,0.00,,,0.00,WUHU21623XXSP,2013-05-09 12:56:00,
2013-05-09 08:01:00,57.4,53.9,30.04,South,180,0.0,0.0,88,0.00,,,0.00,WUHU21623XXSP,2013-05-09 13:01:00,
2013-05-09 08:06:00,57.4,53.9,30.05,SSE,157,0.0,0.0,88,0.00,,,0.00,WUHU21623XXSP,2013-05-09 13:06:00,
2013-05-09 08:11:00,57.4,53.9,30.04,SSE,157,0.0,0.0,88,0.00,,,0.00,WUHU21623XXSP,2013-05-09 13:11:00,
2013-05-09 08:16:00,57.2,53.7,30.04,SSW,202,0.0,0.0,88,0.00,,,0.00,WUHU21623XXSP,2013-05-09 13:16:00,
2013-05-09 08:21:00,57.2,53.7,30.03,SSW,202,0.0,0.0,88,0.00,,,0.00,WUHU21623XXSP,2013-05-09 13:21:00,
2013-05-09 08:26:00,57.4,53.9,30.04,South,180,0.0,0.0,88,0.00,,,0.00,WUHU21623XXSP,2013-05-09 13:26:00,
2013-05-09 08:31:00,57.4,54.2,30.03,SSE,157,0.0,3.4,89,0.00,,,0.00,WUHU21623XXSP,2013-05-09 13:31:00,
2013-05-09 08:36:00,57.6,54.4,30.01,SSE,157,0.0,3.4,89,0.00,,,0.00,WUHU21623XXSP,2013-05-09 13:36:00,
2013-05-09 08:41:00,57.6,54.4,30.01,SSE,157,0.4,0.4,89,0.00,,,0.00,WUHU21623XXSP,2013-05-09 13:41:00,
2013-05-09 08:46:00,57.7,54.5,30.01,SE,135,0.0,3.4,89,0.00,,,0.00,WUHU21623XXSP,2013-05-09 13:46:00,
2013-05-09 08:51:00,57.7,54.5,30.01,South,180,0.0,3.4,89,0.00,,,0.00,WUHU21623XXSP,2013-05-09 13:51:00,
2013-05-09 08:56:00,57.7,54.5,30.01,SSW,202,0.0,0.0,89,0.00,,,0.00,WUHU21623XXSP,2013-05-09 13:56:00,
2013-05-09 09:01:00,57.7,54.5,30.01,SE,135,0.9,0.9,89,0.00,,,0.00,WUHU21623XXSP,2013-05-09 14:01:00,
2013-05-09 09:06:00,57.9,54.7,30.01,SSW,202,0.0,0.9,89,0.00,,,0.00,WUHU21623XXSP,2013-05-09 14:06:00,
2013-05-09 09:11:00,57.9,54.4,30.00,ESE,112,0.0,1.1,88,0.00,,,0.00,WUHU21623XXSP,2013-05-09 14:11:00,
2013-05-09 09:16:00,58.3,54.4,29.97,SSE,157,0.0,1.1,87,0.00,,,0.00,WUHU21623XXSP,2013-05-09 14:16:00,
2013-05-09 09:21:00,58.5,54.3,29.96,SSE,157,0.0,0.0,86,0.00,,,0.00,WUHU21623XXSP,2013-05-09 14:21:00,
2013-05-09 09:26:00,58.8,54.3,29.96,South,180,0.2,2.7,85,0.00,,,0.00,WUHU21623XXSP,2013-05-09 14:26:00,
2013-05-09 09:31:00,59.4,54.2,29.97,West,270,0.0,2.7,83,0.00,,,0.00,WUHU21623XXSP,2013-05-09 14:31:00,
2013-05-09 09:36:00,59.7,53.9,29.99,SSW,202,0.0,0.0,81,0.00,,,0.00,WUHU21623XXSP,2013-05-09 14:36:00,
2013-05-09 09:41:00,60.1,54.0,29.99,WSW,247,0.0,0.0,80,0.00,,,0.00,WUHU21623XXSP,2013-05-09 14:41:00,
2013-05-09 09:46:00,60.4,54.3,30.00,SW,225,0.0,0.0,80,0.00,,,0.00,WUHU21623XXSP,2013-05-09 14:46:00,
2013-05-09 09:51:00,60.6,54.1,30.00,WSW,247,0.0,0.0,79,0.00,,,0.00,WUHU21623XXSP,2013-05-09 14:51:00,
2013-05-09 09:56:00,61.0,54.5,30.00,South,180,0.0,0.0,79,0.00,,,0.00,WUHU21623XXSP,2013-05-09 14:56:00,
2013-05-09 10:01:00,61.3,54.8,30.00,WSW,247,0.0,0.0,79,0.00,,,0.00,WUHU21623XXSP,2013-05-09 15:01:00,
2013-05-09 10:06:00,61.7,55.1,30.00,SW,225,0.0,0.0,79,0.00,,,0.00,WUHU21623XXSP,2013-05-09 15:06:00,
2013-05-09 10:11:00,62.1,55.3,30.00,WSW,247,1.1,1.1,78,0.00,,,0.00,WUHU21623XXSP,2013-05-09 15:11:00,
2013-05-09 10:16:00,62.8,56.1,30.00,SSW,202,0.0,1.1,79,0.00,,,0.00,WUHU21623XXSP,2013-05-09 15:16:00,
2013-05-09 10:21:00,63.1,56.5,30.01,WSW,247,0.0,0.0,79,0.00,,,0.00,WUHU21623XXSP,2013-05-09 15:21:00,
2013-05-09 10:26:00,63.3,56.3,30.01,South,180,0.0,0.0,78,0.00,,,0.00,WUHU21623XXSP,2013-05-09 15:26:00,
2013-05-09 10:31:00,63.9,56.8,30.01,South,180,0.0,0.0,78,0.00,,,0.00,WUHU21623XXSP,2013-05-09 15:31:00,
2013-05-09 10:36:00,64.2,57.2,30.01,SSW,202,0.0,0.0,78,0.00,,,0.00,WUHU21623XXSP,2013-05-09 15:36:00,
2013-05-09 10:41:00,64.4,57.4,30.01,SW,225,0.0,0.0,78,0.00,,,0.00,WUHU21623XXSP,2013-05-09 15:41:00,
2013-05-09 10:46:00,64.8,57.4,30.00,SW,225,0.0,0.0,77,0.00,,,0.00,WUHU21623XXSP,2013-05-09 15:46:00,
2013-05-09 10:51:00,65.1,57.7,30.01,SSW,202,0.0,0.0,77,0.00,,,0.00,WUHU21623XXSP,2013-05-09 15:51:00,
2013-05-09 10:56:00,65.7,58.2,30.01,SSW,202,0.0,0.0,77,0.00,,,0.00,WUHU21623XXSP,2013-05-09 15:56:00,
2013-05-09 11:01:00,66.4,58.4,30.01,SSW,202,0.0,0.2,74,0.00,,,0.00,WUHU21623XXSP,2013-05-09 16:01:00,
2013-05-09 11:06:00,66.7,58.2,30.01,South,180,0.0,0.2,74,0.00,,,0.00,WUHU21623XXSP,2013-05-09 16:06:00,
2013-05-09 11:11:00,67.1,58.5,30.01,South,180,0.0,0.0,74,0.00,,,0.00,WUHU21623XXSP,2013-05-09 16:11:00,
2013-05-09 11:16:00,67.6,58.7,30.01,SSW,202,0.0,0.0,73,0.00,,,0.00,WUHU21623XXSP,2013-05-09 16:16:00,
2013-05-09 11:21:00,68.0,59.1,30.01,South,180,0.0,0.0,73,0.00,,,0.00,WUHU21623XXSP,2013-05-09 16:21:00,
2013-05-09 11:26:00,68.5,59.4,30.01,South,180,0.0,0.0,73,0.00,,,0.00,WUHU21623XXSP,2013-05-09 16:26:00,
2013-05-09 11:31:00,69.4,59.6,30.01,SSW,202,0.0,0.0,71,0.00,,,0.00,WUHU21623XXSP,2013-05-09 16:31:00,
2013-05-09 11:36:00,70.0,58.9,30.00,WSW,247,2.7,2.7,68,0.00,,,0.00,WUHU21623XXSP,2013-05-09 16:36:00,
2013-05-09 11:41:00,70.3,58.0,30.01,WSW,247,0.0,2.7,65,0.00,,,0.00,WUHU21623XXSP,2013-05-09 16:41:00,
2013-05-09 11:46:00,70.9,57.6,30.01,WSW,247,0.0,0.0,63,0.00,,,0.00,WUHU21623XXSP,2013-05-09 16:46:00,
2013-05-09 11:51:00,70.9,57.6,30.01,South,180,0.0,0.0,63,0.00,,,0.00,WUHU21623XXSP,2013-05-09 16:51:00,
2013-05-09 11:56:00,71.2,58.4,30.01,SSW,202,0.0,0.0,64,0.00,,,0.00,WUHU21623XXSP,2013-05-09 16:56:00,
2013-05-09 12:01:00,71.8,58.5,30.01,WSW,247,3.6,3.6,63,0.00,,,0.00,WUHU21623XXSP,2013-05-09 17:01:00,
2013-05-09 12:06:00,72.1,58.4,30.01,WSW,247,0.0,3.6,62,0.00,,,0.00,WUHU21623XXSP,2013-05-09 17:06:00,
2013-05-09 12:11:00,72.5,58.7,30.01,SSW,202,0.0,0.9,62,0.00,,,0.00,WUHU21623XXSP,2013-05-09 17:11:00,
2013-05-09 12:16:00,72.3,58.5,30.01,SSE,157,0.0,0.9,62,0.00,,,0.00,WUHU21623XXSP,2013-05-09 17:16:00,
2013-05-09 12:21:00,72.5,59.1,30.01,SSE,157,1.8,1.8,63,0.00,,,0.00,WUHU21623XXSP,2013-05-09 17:21:00,
2013-05-09 12:26:00,73.2,58.5,30.01,South,180,0.0,1.8,60,0.00,,,0.00,WUHU21623XXSP,2013-05-09 17:26:00,
2013-05-09 12:31:00,73.6,58.3,30.00,WSW,247,0.0,1.3,59,0.00,,,0.00,WUHU21623XXSP,2013-05-09 17:31:00,
2013-05-09 12:36:00,73.6,57.8,30.00,South,180,0.0,0.0,58,0.00,,,0.00,WUHU21623XXSP,2013-05-09 17:36:00,
2013-05-09 12:41:00,73.6,58.3,29.99,WSW,247,0.0,0.0,59,0.00,,,0.00,WUHU21623XXSP,2013-05-09 17:41:00,
2013-05-09 12:46:00,73.8,58.5,29.99,WSW,247,0.0,0.0,59,0.00,,,0.00,WUHU21623XXSP,2013-05-09 17:46:00,
2013-05-09 12:51:00,74.1,58.9,29.99,SSE,157,4.7,4.7,59,0.00,,,0.00,WUHU21623XXSP,2013-05-09 17:51:00,
2013-05-09 12:56:00,75.0,59.8,29.97,South,180,0.0,4.7,59,0.00,,,0.00,WUHU21623XXSP,2013-05-09 17:56:00,
2013-05-09 13:01:00,75.0,59.8,29.97,South,180,0.0,0.0,59,0.00,,,0.00,WUHU21623XXSP,2013-05-09 18:01:00,
2013-05-09 13:09:00,76.5,60.1,29.99,SSE,157,3.8,3.8,56,0.00,,,0.00,WUHU21623XXSP,2013-05-09 18:09:00,
2013-05-09 13:14:00,76.6,60.2,29.98,SSE,157,0.0,8.3,57,0.00,,,0.00,WUHU21623XXSP,2013-05-09 18:14:00,
2013-05-09 13:19:00,77.4,59.9,29.98,South,180,0.0,8.3,55,0.00,,,0.00,WUHU21623XXSP,2013-05-09 18:19:00,
2013-05-09 13:24:00,77.2,59.7,29.98,SSW,202,0.0,5.8,55,0.00,,,0.00,WUHU21623XXSP,2013-05-09 18:24:00,
2013-05-09 13:29:00,76.8,59.9,29.99,SW,225,8.9,8.9,56,0.00,,,0.00,WUHU21623XXSP,2013-05-09 18:29:00,
2013-05-09 13:34:00,76.3,59.2,30.00,WSW,247,1.6,8.9,56,0.00,,,0.00,WUHU21623XXSP,2013-05-09 18:34:00,
2013-05-09 13:39:00,75.9,58.6,30.00,South,180,0.0,3.4,55,0.00,,,0.00,WUHU21623XXSP,2013-05-09 18:39:00,
2013-05-09 13:44:00,75.6,58.2,30.00,SSE,157,6.9,6.9,55,0.00,,,0.00,WUHU21623XXSP,2013-05-09 18:44:00,
2013-05-09 13:49:00,75.7,59.4,30.00,South,180,0.0,6.9,57,0.00,,,0.00,WUHU21623XXSP,2013-05-09 18:49:00,
2013-05-09 13:54:00,75.7,59.4,30.00,South,180,0.0,0.0,57,0.00,,,0.00,WUHU21623XXSP,2013-05-09 18:54:00,
2013-05-09 14:16:00,78.6,60.0,29.99,SSE,157,0.0,0.0,53,0.00,,,0.00,WUHU21623XXSP,2013-05-09 19:16:00,
2013-05-09 14:21:00,79.0,60.4,30.00,SSW,202,0.0,0.0,53,0.00,,,0.00,WUHU21623XXSP,2013-05-09 19:21:00,
2013-05-09 14:26:00,78.1,59.0,30.00,South,180,0.0,1.1,52,0.00,,,0.00,WUHU21623XXSP,2013-05-09 19:26:00,
2013-05-09 14:31:00,77.2,59.2,30.00,SSW,202,0.0,1.1,54,0.00,,,0.00,WUHU21623XXSP,2013-05-09 19:31:00,
2013-05-09 14:36:00,76.8,58.9,30.00,South,180,0.0,0.0,54,0.00,,,0.00,WUHU21623XXSP,2013-05-09 19:36:00,
2013-05-09 14:41:00,76.6,59.2,29.99,South,180,0.0,0.0,55,0.00,,,0.00,WUHU21623XXSP,2013-05-09 19:41:00,
2013-05-09 14:46:00,76.3,58.9,30.00,SSE,157,0.0,0.0,55,0.00,,,0.00,WUHU21623XXSP,2013-05-09 19:46:00,
2013-05-09 14:51:00,76.1,59.2,30.00,SSE,157,0.0,0.0,56,0.00,,,0.00,WUHU21623XXSP,2013-05-09 19:51:00,
2013-05-09 14:56:00,76.1,59.2,30.00,SSE,157,0.0,0.0,56,0.00,,,0.00,WUHU21623XXSP,2013-05-09 19:56:00,
2013-05-09 15:43:00,75.4,57.6,30.00,SW,225,8.9,8.9,54,0.00,,,0.00,WUHU21623XXSP,2013-05-09 20:43:00,
2013-05-09 15:48:00,75.0,57.7,30.00,SW,225,0.0,8.9,55,0.00,,,0.00,WUHU21623XXSP,2013-05-09 20:48:00,
2013-05-09 15:53:00,74.5,58.1,29.99,South,180,4.0,4.0,56,0.00,,,0.00,WUHU21623XXSP,2013-05-09 20:53:00,
2013-05-09 15:58:00,74.1,57.8,30.00,South,180,0.0,4.0,57,0.00,,,0.00,WUHU21623XXSP,2013-05-09 20:58:00,
2013-05-09 16:03:00,73.6,58.3,30.00,SSW,202,0.0,2.9,59,0.00,,,0.00,WUHU21623XXSP,2013-05-09 21:03:00,
2013-05-09 16:08:00,73.2,58.0,30.00,South,180,0.0,2.9,59,0.00,,,0.00,WUHU21623XXSP,2013-05-09 21:08:00,
2013-05-09 16:13:00,73.2,58.0,30.00,South,180,0.0,0.0,59,0.00,,,0.00,WUHU21623XXSP,2013-05-09 21:13:00,
2013-05-09 16:35:00,71.4,58.1,29.98,SSW,202,0.0,0.0,63,0.00,,,0.00,WUHU21623XXSP,2013-05-09 21:35:00,
2013-05-09 16:40:00,70.9,58.1,29.97,South,180,0.0,0.0,64,0.00,,,0.00,WUHU21623XXSP,2013-05-09 21:40:00,
2013-05-09 16:45:00,70.5,58.2,29.97,SSW,202,0.0,0.0,65,0.00,,,0.00,WUHU21623XXSP,2013-05-09 21:45:00,
2013-05-09 16:50:00,70.3,58.4,29.97,SW,225,0.0,0.0,66,0.00,,,0.00,WUHU21623XXSP,2013-05-09 21:50:00,
2013-05-09 16:55:00,69.6,58.9,29.98,WSW,247,0.0,0.0,69,0.00,,,0.00,WUHU21623XXSP,2013-05-09 21:55:00,
2013-05-09 17:00:00,67.6,58.7,30.00,SSE,157,0.0,2.2,73,0.00,,,0.00,WUHU21623XXSP,2013-05-09 22:00:00,
2013-05-09 17:05:00,66.0,57.5,29.99,South,180,0.0,2.2,74,0.00,,,0.00,WUHU21623XXSP,2013-05-09 22:05:00,
2013-05-09 17:10:00,64.9,57.2,29.99,South,180,0.0,0.0,76,0.00,,,0.00,WUHU21623XXSP,2013-05-09 22:10:00,
2013-05-09 17:15:00,64.2,56.8,30.00,South,180,0.0,0.0,77,0.00,,,0.00,WUHU21623XXSP,2013-05-09 22:15:00,
2013-05-09 17:20:00,64.0,57.0,30.01,South,180,0.0,0.0,78,0.00,,,0.00,WUHU21623XXSP,2013-05-09 22:20:00,
2013-05-09 17:25:00,64.0,57.4,30.01,SSW,202,0.0,0.0,79,0.00,,,0.00,WUHU21623XXSP,2013-05-09 22:25:00,
2013-05-09 17:30:00,63.7,57.4,29.99,SSW,202,0.0,0.0,80,0.00,,,0.00,WUHU21623XXSP,2013-05-09 22:30:00,
2013-05-09 17:35:00,63.3,57.2,29.98,SSW,202,0.0,0.0,80,0.00,,,0.00,WUHU21623XXSP,2013-05-09 22:35:00,
2013-05-09 17:40:00,63.1,56.8,29.99,SSW,202,0.0,0.0,80,0.00,,,0.00,WUHU21623XXSP,2013-05-09 22:40:00,
2013-05-09 17:45:00,62.8,56.7,29.99,SSW,202,0.0,0.0,81,0.00,,,0.00,WUHU21623XXSP,2013-05-09 22:45:00,
2013-05-09 17:50:00,62.8,57.2,29.99,WSW,247,0.0,0.0,82,0.00,,,0.00,WUHU21623XXSP,2013-05-09 22:50:00,
2013-05-09 17:55:00,62.8,57.5,29.99,South,180,0.0,0.0,83,0.00,,,0.00,WUHU21623XXSP,2013-05-09 22:55:00,
2013-05-09 18:00:00,62.6,57.7,29.98,SSW,202,0.0,0.0,84,0.00,,,0.00,WUHU21623XXSP,2013-05-09 23:00:00,
2013-05-09 18:05:00,62.4,57.5,29.99,SSW,202,0.0,0.0,84,0.00,,,0.00,WUHU21623XXSP,2013-05-09 23:05:00,
2013-05-09 18:10:00,62.4,57.8,29.98,SSW,202,0.0,0.0,85,0.00,,,0.00,WUHU21623XXSP,2013-05-09 23:10:00,
2013-05-09 18:15:00,62.2,57.7,29.97,SSW,202,0.0,0.0,85,0.00,,,0.00,WUHU21623XXSP,2013-05-09 23:15:00,
2013-05-09 18:20:00,61.9,57.3,29.98,WSW,247,0.0,0.0,85,0.00,,,0.00,WUHU21623XXSP,2013-05-09 23:20:00,
2013-05-09 18:25:00,61.7,57.5,29.97,WSW,247,0.0,0.0,86,0.00,,,0.00,WUHU21623XXSP,2013-05-09 23:25:00,
2013-05-09 18:30:00,61.2,57.0,29.98,SW,225,0.0,4.9,86,0.00,,,0.00,WUHU21623XXSP,2013-05-09 23:30:00,
2013-05-09 18:35:00,61.0,56.8,29.97,South,180,0.0,4.9,86,0.00,,,0.00,WUHU21623XXSP,2013-05-09 23:35:00,
2013-05-09 18:40:00,60.6,56.4,29.98,South,180,0.0,0.0,86,0.00,,,0.00,WUHU21623XXSP,2013-05-09 23:40:00,
2013-05-09 18:45:00,60.4,56.2,29.97,NE,45,0.0,0.0,86,0.00,,,0.00,WUHU21623XXSP,2013-05-09 23:45:00,
2013-05-09 18:50:00,59.9,56.0,29.98,WNW,292,0.0,0.0,87,0.00,,,0.00,WUHU21623XXSP,2013-05-09 23:50:00,
2013-05-09 18:55:00,59.5,55.6,29.98,West,270,0.0,0.0,87,0.00,,,0.00,WUHU21623XXSP,2013-05-09 23:55:00,
2013-05-09 19:00:00,59.5,55.6,29.97,West,270,0.0,0.0,87,0.00,,,0.00,WUHU21623XXSP,2013-05-10 00:00:00,
2013-05-09 19:05:00,59.4,55.5,29.98,West,270,0.0,0.0,87,0.00,,,0.00,WUHU21623XXSP,2013-05-10 00:05:00,
2013-05-09 19:10:00,59.0,55.1,29.98,West,270,0.0,0.0,87,0.00,,,0.00,WUHU21623XXSP,2013-05-10 00:10:00,
2013-05-09 19:15:00,58.8,55.3,29.98,West,270,0.0,0.0,88,0.00,,,0.00,WUHU21623XXSP,2013-05-10 00:15:00,
2013-05-09 19:20:00,58.8,55.3,29.98,West,270,0.0,0.0,88,0.00,,,0.00,WUHU21623XXSP,2013-05-10 00:20:00,
2013-05-09 19:25:00,58.8,55.3,29.98,West,270,0.0,0.0,88,0.00,,,0.00,WUHU21623XXSP,2013-05-10 00:25:00,
2013-05-09 19:30:00,58.8,55.3,29.99,West,270,0.0,0.0,88,0.00,,,0.00,WUHU21623XXSP,2013-05-10 00:30:00,
2013-05-09 19:35:00,58.8,55.3,29.98,West,270,0.0,0.0,88,0.00,,,0.00,WUHU21623XXSP,2013-05-10 00:35:00,
2013-05-09 19:40:00,58.6,55.1,29.98,West,270,0.0,0.0,88,0.00,,,0.00,WUHU21623XXSP,2013-05-10 00:40:00,
2013-05-09 19:45:00,58.8,55.6,29.98,West,270,0.0,0.0,89,0.00,,,0.00,WUHU21623XXSP,2013-05-10 00:45:00,
2013-05-09 19:50:00,58.8,55.6,29.98,West,270,0.0,0.0,89,0.00,,,0.00,WUHU21623XXSP,2013-05-10 00:50:00,
2013-05-09 19:55:00,58.8,55.6,29.98,West,270,0.0,0.0,89,0.00,,,0.00,WUHU21623XXSP,2013-05-10 00:55:00,
2013-05-09 20:00:00,58.8,55.6,29.98,West,270,0.0,0.0,89,0.00,,,0.00,WUHU21623XXSP,2013-05-10 01:00:00,
2013-05-09 20:05:00,58.8,55.6,29.98,West,270,0.0,0.0,89,0.00,,,0.00,WUHU21623XXSP,2013-05-10 01:05:00,
2013-05-09 20:10:00,58.8,55.9,29.98,West,270,0.0,0.0,90,0.00,,,0.00,WUHU21623XXSP,2013-05-10 01:10:00,
2013-05-09 20:15:00,58.8,55.9,29.99,West,270,0.0,0.0,90,0.00,,,0.00,WUHU21623XXSP,2013-05-10 01:15:00,
2013-05-09 20:20:00,58.8,55.9,29.99,NNE,22,0.0,0.0,90,0.00,,,0.00,WUHU21623XXSP,2013-05-10 01:20:00,
2013-05-09 20:25:00,59.2,56.3,30.00,NNE,22,0.0,0.0,90,0.00,,,0.00,WUHU21623XXSP,2013-05-10 01:25:00,
2013-05-09 20:30:00,59.2,56.3,30.00,NNE,22,0.0,0.0,90,0.00,,,0.00,WUHU21623XXSP,2013-05-10 01:30:00,